CSIM
1 43793U 18099AM  24323.73239268  .00038232  00000-0  13233-2 0  9999
2 43793  97.5130  28.2629 0009365 131.4940 228.7105 15.29729715326270
JO-97
1 43803U 18099AX  24323.38645892  .00012415  00000-0  70136-3 0  9997
2 43803  97.4988  19.0022 0009576 128.4478 231.7614 15.13213721325965
Suomi 100
1 43804U 18099AY  24323.74021462  .00010343  00000-0  60693-3 0  9994
2 43804  97.5058  19.0552 0015234 128.3827 231.8774 15.11832242325981
ISAT
1 43879U 18111D   24323.50171611  .00018511  00000-0  90502-3 0  9994
2 43879  97.6061 229.0556 0010815 173.8018 186.3351 15.18226857320742
UWE-4
1 43880U 18111E   24323.49094786  .00015559  00000-0  80330-3 0  9998
2 43880  97.5996 228.5990 0013595 188.7359 171.3639 15.16324625322753
Sparrow
1 43881U 18111F   24323.74259098  .00018819  00000-0  90170-3 0  9991
2 43881  97.6171 231.5351 0006523 212.8639 147.2190 15.18958002320877
Prox-1
1 44339U 19036A   24323.27018500  .00013924  00000-0  20980-2 0  9999
2 44339  23.9999 310.1664 0007717 279.3563  80.6060 14.72666561287937
SONATE
1 44400U 19038Q   24323.56435542  .00039396  00000-0  76534-3 0  9999
2 44400  97.7135 325.9015 0009276 275.0824  84.9366 15.47484185297835
Taurus 1
1 44530U 19059C   24323.78105385  .00009569  00000-0  19886-2 0  9994
2 44530  98.5894  88.6618 0010411 297.3530  62.6609 14.60281270274287
Duchifat 3
1 44854U 19089C   24323.76257343  .00025023  00000-0  93286-3 0  9996
2 44854  36.9500 184.4455 0012284 316.1907  43.7868 15.26572977271743
TO-108
1 44881U 19093C   24323.76888848  .00001812  00000-0  22004-3 0  9991
2 44881  97.8156  37.5461 0014233 171.5344 188.6113 14.84686681265976
FloripaSat 1
1 44885U 19093G   24323.74730606  .00007095  00000-0  66795-3 0  9995
2 44885  97.8319  45.4360 0011812 159.8692 200.2996 14.94107465266411
RS-44
1 44909U 19096E   24323.83235138  .00000028  00000-0  61002-4 0  9991
2 44909  82.5236   2.0149 0218299  49.8642 312.1359 12.79736093228805
UPMSat 2
1 46276U 20061E   24323.45648619  .00027807  00000-0  59809-3 0  9999
2 46276  97.2767  28.7116 0000363   9.8600 350.2656 15.44615801233892
AmicalSat
1 46287U 20061R   24323.46237818  .00135790  00000-0  13016-2 0  9997
2 46287  97.3230  32.9257 0001390 309.8267  50.2871 15.66215738233420
SALSAT
1 46495U 20068K   24322.90486090  .00009054  00000-0  45478-3 0  9992
2 46495  97.8379 286.6550 0014182 137.6554 222.5776 15.17439511227584
IDEASSat
1 47458U 21006AX  24323.74617554  .00333402  00000-0  14431-2 0  9990
2 47458  97.2987  26.7328 0002836 318.2870  41.8184 15.84043514212611
CubeSX-Sirius-HSE
1 47951U 21022V   24323.79082824  .00040786  00000-0  10281-2 0  9996
2 47951  97.4405 222.8530 0008607 327.8716  32.2004 15.39730215202230
CubeSX-HSE
1 47952U 21022W   24323.79101337  .00044650  00000-0  11133-2 0  9999
2 47952  97.4403 222.9886 0008490 325.8444  34.2255 15.40042647202248
KSU-Cubesat
1 47954U 21022Y   24323.26044216  .00066095  00000-0  12719-2 0  9993
2 47954  97.4401 224.8547 0005698 329.0287  31.0626 15.47660414202030
GRBAlpha
1 47959U 21022AD  24323.81390908  .00044947  00000-0  11206-2 0  9993
2 47959  97.4404 223.1801 0008448 325.7513  34.3187 15.40044326201076
Orbicraft-Zorkiy
1 47960U 21022AE  24323.83457618  .00063808  00000-0  13478-2 0  9999
2 47960  97.4446 225.2719 0006610 328.4014  31.6837 15.44941966201870
TUBIN
1 48900U 21059X   24323.74491336  .00027984  00000-0  69235-3 0  9997
2 48900  97.6621 114.0876 0005493 260.0076 100.0550 15.40403851188620
LEDSAT
1 49069U 21073D   24323.73258982  .00028609  00000-0  81413-3 0  9994
2 49069  97.4194  34.7033 0015916  95.2104 265.0957 15.35961688180079
CUTE
1 49263U 21088D   24323.75863896  .00032396  00000-0  10474-2 0  9990
2 49263  97.4776  29.6938 0010418 255.3768 104.6318 15.31961753173198
TeikyoSat 4
1 49396U 21102B   24323.68725736  .00002420  00000-0  16996-3 0  9997
2 49396  97.4392   3.3093 0014422 106.6972 253.5839 15.05969895165991
Z-Sat
1 49399U 21102E   24323.77573137  .00005251  00000-0  31423-3 0  9993
2 49399  97.4108   5.4298 0020967  86.3976 273.9652 15.11266724166312
KOSEN 1
1 49402U 21102H   24323.05762099  .00007819  00000-0  41432-3 0  9999
2 49402  97.4030   6.8345 0018963  70.7966 289.5317 15.15505662166411
HO-113
1 50466U 21131B   24323.80750973  .00001000  00000-0  32980-3 0  9998
2 50466  98.5223  48.1571 0004589  37.5674 322.5834 14.40259697152255
IRIS-A
1 51044U 22002BN  24323.73639355  .00040613  00000-0  85139-3 0  9998
2 51044  97.3636  30.7759 0004520 194.9783 165.1332 15.45287309158169
Planetum 1
1 52738U 22057G   24323.81053748  .00628772  16623-3  16549-2 0  9991
2 52738  97.5669  99.2906 0009111 294.3421  65.6903 15.94724983138622
Foresail-1
1 52766U 22057AL  24323.31408253  .00040474  00000-0  84081-3 0  9995
2 52766  97.5979  93.8966 0007908 299.9602  60.0861 15.45534435138132
SNUGLITE 2
1 52899U 22065F   24323.38808928  .00002091  00000-0  42574-3 0  9995
2 52899  98.1415 101.8712 0008116  37.5485 322.6282 14.62046729126781
IO-117
1 53106U 22080B   24323.52137211 -.00000003  00000-0  00000+0 0  9996
2 53106  70.1294 138.9057 0008387  72.7310 287.4267  6.42557804 55185
FO-118
1 54684U 22167C   24323.76526982  .00081073  00000-0  13676-2 0  9998
2 54684  97.6161 114.3409 0008885 307.5907  52.4537 15.51334662108068
SSS-2B
1 56184U 23054G   24323.77287190  .00214779  00000-0  13716-2 0  9993
2 56184  97.3404 225.5387 0004874  68.2179 291.9605 15.75733843 90121
SO-120
1 56992U 23084BU  24323.80425543  .00100064  00000-0  16257-2 0  9997
2 56992  97.5382  87.0414 0007891 212.0280 148.0494 15.52325892 79931
MRC-100
1 56993U 23084BV  24323.59862471  .00166848  00000-0  18240-2 0  9995
2 56993  97.5371  88.2629 0007056 229.0069 131.0579 15.62746695 80002
UmKA 1 (RS40S)
1 57172U 23091G   24323.82487679  .00007716  00000-0  46253-3 0  9996
2 57172  97.5906  14.4757 0014760 316.8404  43.1668 15.11162992 76819
CubeBel-2 (EU11S)
1 57175U 23091K   24323.78491603  .00009757  00000-0  55347-3 0  9997
2 57175  97.5904  14.6706 0013152 328.8689  31.1761 15.13100302 76829
VERONIKA
1 58261U 23174F   24323.78858419  .00033724  00000-0  10234-2 0  9994
2 58261  97.4435  38.1750 0009524  58.0308 302.1859 15.33984685 57297
KAFASAT
1 58317U 23174BP  24323.55709658  .00061768  00000-0  14192-2 0  9997
2 58317  97.4367  39.5791 0007443  26.3316 333.8308 15.42442376 57384
ENSO
1 58470U 23185J   24323.79281231  .00029443  00000-0  89646-3 0  9998
2 58470  97.4060  29.6984 0010876  91.9739 268.2750 15.33893024 53747
EIRSAT-1
1 58472U 23185L   24323.78297663  .00033578  00000-0  95842-3 0  9994
2 58472  97.4054  29.9821 0010150  91.9248 268.3159 15.35910905 53761
SONATE-2
1 59112U 24043Q   24323.59016235  .00016400  00000-0  64678-3 0  9991
2 59112  97.4950  86.5814 0013700 113.0251 247.2433 15.25556066 39288
MO-122
1 60209U 24125G   24323.56910530  .00016064  00000-0  62970-3 0  9998
2 60209  97.2998 172.6467 0024237 137.6530 222.6585 15.25567312 20895
GRBBeta
1 60237U 24128C   24323.30136561  .00005323  00000-0  44597-3 0  9999
2 60237  61.9949  66.6242 0027015   4.4019 355.7303 14.99350244 19688
Curium One
1 60242U 24128H   24322.67067701  .00009187  00000-0  74996-3 0  9991
2 60242  61.9853  68.9559 0027147 354.5451   5.5339 14.99719314 19595
ROBUSTA-3A
1 60243U 24128J   24323.82419799  .00009221  00000-0  75877-3 0  9996
2 60243  61.9916  65.2193 0025453 352.0540   8.0143 14.99442054 19764
CatSat
1 60246U 24125J   24323.52975916  .00012657  00000-0  51159-3 0  9995
2 60246  97.2813 173.4934 0050630  94.0281 266.6746 15.23664359 18997
CosmoGirlSat
1 60953U 98067WT  24323.22606111  .00361033  00000-0  15732-2 0  9992
2 60953  51.6246 264.5694 0008675 155.7072 204.4342 15.83175425 12641
Sakura
1 60954U 98067WU  24323.30572509  .00637765  17419-3  18443-2 0  9990
2 60954  51.6214 262.8289 0009404 157.0625 203.0803 15.92344112 12679
CySat-1
1 61501U 98067WZ  24323.58218620  .00148267  00000-0  15068-2 0  9999
2 61501  51.6340 268.4870 0010203 170.3844 189.7348 15.64123322  6456
DORA
1 61502U 98067XA  24323.56252662  .00653029  00000-0  27658-2 0  9997
2 61502  51.6237 266.8325 0014126 159.5328 200.6244 15.82979825  6469
